This is the latest recevied weather packets stored in our database for station/object K7CTM. If no packets are shown the sender has not sent any weather packets the latest 10 day(s).
| Time | Temp. | Humidity | Pressure | Rain* | Wind** | Luminosity | Snow |
|---|---|---|---|---|---|---|---|
| 1777904508 | 8.33° C | 56% | 1025.7 hPa | 0 mm | - | 111 W/m² | - |
| 1777904204 | 8.33° C | 55% | 1026 hPa | 0 mm | - | 107 W/m² | - |
| 1777903902 | 8.33° C | 54% | 1026.1 hPa | 0 mm | - | 106 W/m² | - |
| 1777903599 | 8.33° C | 54% | 1026 hPa | 0 mm | - | 92 W/m² | - |
| 1777903294 | 8.33° C | 54% | 1026.2 hPa | 0 mm | - | 77 W/m² | - |
| 1777902688 | 7.78° C | 52% | 1025.6 hPa | 0 mm | - | 90 W/m² | - |
| 1777901175 | 7.78° C | 54% | 1025.8 hPa | 0 mm | - | 52 W/m² | - |
| 1777898147 | 7.78° C | 51% | 1025.4 hPa | 0 mm | - | 13 W/m² | - |
| 1777897843 | 7.22° C | 52% | 1025.5 hPa | 0 mm | - | 10 W/m² | - |
| 1777897539 | 7.22° C | 53% | 1025.5 hPa | 0 mm | - | 8 W/m² | - |
| 1777897235 | 7.22° C | 51% | 1025.3 hPa | 0 mm | - | 6 W/m² | - |
| 1777896931 | 7.22° C | 52% | 1025.3 hPa | 0 mm | - | 4 W/m² | - |
| 1777896629 | 7.78° C | 52% | 1025.2 hPa | 0 mm | - | 3 W/m² | - |
| 1777896325 | 7.78° C | 51% | 1025.5 hPa | 0 mm | - | 2 W/m² | - |
| 1777896024 | 7.22° C | 51% | 1025.3 hPa | 0 mm | - | 1 W/m² | - |
| 1777895721 | 7.78° C | 50% | 1025.5 hPa | 0 mm | - | 1 W/m² | - |
| 1777895418 | 7.78° C | 50% | 1025.4 hPa | 0 mm | - | 0 W/m² | - |
| 1777895116 | 7.78° C | 50% | 1025.2 hPa | 0 mm | - | 0 W/m² | - |
| 1777894510 | 8.33° C | 49% | 1025.5 hPa | 0 mm | - | 0 W/m² | - |
| 1777894208 | 7.78° C | 49% | 1025.3 hPa | 0 mm | - | 0 W/m² | - |
| 1777893904 | 7.78° C | 48% | 1025.2 hPa | 0 mm | - | 0 W/m² | - |
| 1777893600 | 7.78° C | 48% | 1025 hPa | 0 mm | - | 0 W/m² | - |
| 1777893297 | 7.78° C | 48% | 1024.8 hPa | 0 mm | - | 0 W/m² | - |
| 1777892993 | 8.33° C | 48% | 1024.7 hPa | 0 mm | - | 0 W/m² | - |
| 1777892690 | 7.78° C | 47% | 1024.5 hPa | 0 mm | - | 0 W/m² | - |
* Rain latest hour (hover to see other rain measurements)
** Current wind speed in m/s (hover to see current wind gust speed)